Weather History for Falls City, NE

Change the Weather History Date:

Tuesday, August 6, 2013

  Actual Average Record
Temperature  
Mean Temperature 78 °F -  
Max Temperature 89 °F 87 °F 102 °F (1983)
Min Temperature 68 °F 63 °F 50 °F (1990)
Cooling Degree Days 14    
Growing Degree Days 28 (Base 50)    
Moisture  
Dew Point 72 °F    
Average Humidity 88    
Maximum Humidity 100    
Minimum Humidity 63    
Precipitation  
Precipitation 0.00 in - - ()
Sea Level Pressure  
Sea Level Pressure 29.82 in    
Wind  
Wind Speed 3 mph (SE)    
Max Wind Speed 13 mph    
Max Gust Speed -    
Visibility 6 miles    
Events Fog    
Averages and records for this station are not official NWS values.
T = Trace of Precipitation, MM = Missing Value Source: NWS Daily Summary

Daily Weather History Graph

Daily Weather History Graph

Search for Another Location

Airport:

Trip Planner

Search our weather history database for the weather conditions in past years. The results will help you decide how hot, cold, wet, or windy it might be!

Date:

Astronomy

Aug. 06, 2013 Rise Set
Actual Time 6:25 AM CDT 8:30 PM CDT
Civil Twilight 5:55 AM CDT 9:00 PM CDT
Nautical Twilight 5:19 AM CDT 9:36 PM CDT
Astronomical Twilight 4:39 AM CDT 10:15 PM CDT
Moon 6:17 AM CDT (8/6) 8:05 PM CDT (8/6)
Length of Visible Light 15h 04m
Length of Day
14h 04m
Waning Crescent, 0% of the Moon is Illuminated
Aug 6
Waning Crescent
Aug 6
New
Aug 14
First Quarter
Aug 20
Full
Aug 28
Last Quarter

Hourly Weather History & Observations

Time (CDT) Temp. Heat Index Dew Point Humidity Pressure Visibility Wind Dir Wind Speed Gust Speed Precip Events Conditions
12:53 AM 75.0 °F - 72.0 °F 90% 29.86 in 10.0 mi South 4.6 mph - N/A   Clear
1:53 AM 73.9 °F - 71.1 °F 91% 29.83 in 10.0 mi SSW 3.5 mph - N/A   Clear
2:53 AM 73.9 °F - 71.1 °F 91% 29.82 in 10.0 mi SSW 3.5 mph - N/A   Clear
3:53 AM 71.1 °F - 70.0 °F 96% 29.82 in 3.0 mi Calm Calm - N/A   Clear
4:53 AM 71.1 °F - 70.0 °F 96% 29.81 in 6.0 mi Calm Calm - N/A   Clear
5:17 AM 69.8 °F - 68.0 °F 94% 29.83 in 1.5 mi Calm Calm - N/A   Partly Cloudy
5:21 AM 69.8 °F - 68.0 °F 94% 29.82 in 0.8 mi Calm Calm - N/A   Mist
5:28 AM 69.8 °F - 69.8 °F 100% 29.82 in 1.2 mi SE 3.5 mph - N/A   Partly Cloudy
5:32 AM 69.8 °F - 68.0 °F 94% 29.82 in 3.0 mi SSE 3.5 mph - N/A   Partly Cloudy
5:50 AM 69.8 °F - 69.8 °F 100% 29.82 in 2.0 mi Calm Calm - N/A   Clear
5:53 AM 69.1 °F - 69.1 °F 100% 29.80 in 2.0 mi Calm Calm - N/A   Clear
6:06 AM 69.8 °F - 69.8 °F 100% 29.82 in 1.2 mi Calm Calm - N/A   Partly Cloudy
6:08 AM 69.8 °F - 68.0 °F 94% 29.82 in 0.8 mi Calm Calm - N/A   Mist
6:19 AM 68.0 °F - 68.0 °F 100% 29.82 in 0.2 mi Calm Calm - N/A Fog Fog
6:26 AM 68.0 °F - 68.0 °F 100% 29.82 in 0.2 mi Calm Calm - N/A Fog Fog
6:35 AM 69.8 °F - 68.0 °F 94% 29.81 in 0.2 mi ESE 3.5 mph - N/A Fog Fog
6:53 AM 68.0 °F - 68.0 °F 100% 29.79 in 0.2 mi ENE 4.6 mph - N/A Fog Fog
7:02 AM 69.8 °F - 69.8 °F 100% 29.82 in 1.0 mi ENE 3.5 mph - N/A   Mist
7:05 AM 69.8 °F - 69.8 °F 100% 29.82 in 2.0 mi NE 3.5 mph - N/A   Scattered Clouds
7:13 AM 69.8 °F - 69.8 °F 100% 29.83 in 3.0 mi Calm Calm - N/A   Partly Cloudy
7:53 AM 72.0 °F - 72.0 °F 100% 29.82 in 5.0 mi Calm Calm - N/A   Clear
8:53 AM 75.9 °F - 73.9 °F 94% 29.84 in 7.0 mi ESE 3.5 mph - N/A   Partly Cloudy
9:13 AM 75.2 °F - 73.4 °F 94% 29.88 in 6.0 mi Calm Calm - N/A   Mostly Cloudy
9:50 AM 77.0 °F - 73.4 °F 89% 29.89 in 6.0 mi Calm Calm - N/A   Overcast
9:53 AM 78.1 °F - 73.9 °F 87% 29.86 in 6.0 mi Variable 3.5 mph - N/A   Overcast
10:50 AM 80.6 °F 86.2 °F 75.2 °F 84% 29.90 in 10.0 mi NNE 9.2 mph - N/A   Overcast
10:53 AM 80.1 °F 85.1 °F 75.0 °F 85% 29.87 in 10.0 mi North 8.1 mph - N/A   Overcast
11:03 AM 82.4 °F 89.5 °F 75.2 °F 79% 29.90 in 10.0 mi NNE 8.1 mph - N/A   Mostly Cloudy
11:11 AM 82.4 °F 89.5 °F 75.2 °F 79% 29.89 in 10.0 mi NNE 8.1 mph - N/A   Scattered Clouds
11:53 AM 82.0 °F 87.9 °F 73.9 °F 76% 29.85 in 10.0 mi ENE 6.9 mph - N/A   Mostly Cloudy
12:06 PM 80.6 °F 85.4 °F 73.4 °F 79% 29.87 in 10.0 mi ENE 6.9 mph - N/A   Overcast
12:19 PM 82.4 °F 89.5 °F 75.2 °F 79% 29.86 in 10.0 mi East 5.8 mph - N/A   Overcast
1:53 PM 84.9 °F 93.3 °F 75.0 °F 72% 29.79 in 10.0 mi SE 10.4 mph - N/A   Partly Cloudy
2:53 PM 86.0 °F 95.1 °F 75.0 °F 70% 29.79 in 10.0 mi SSE 8.1 mph - N/A   Scattered Clouds
3:53 PM 87.1 °F 97.3 °F 75.9 °F 69% 29.77 in 10.0 mi South 12.7 mph - N/A   Partly Cloudy
4:53 PM 88.0 °F 96.5 °F 73.9 °F 63% 29.77 in 10.0 mi South 9.2 mph - N/A   Clear
5:53 PM 89.1 °F 99.1 °F 75.0 °F 63% 29.77 in 10.0 mi South 6.9 mph - N/A   Clear
6:53 PM 87.1 °F 96.3 °F 75.0 °F 67% 29.78 in 10.0 mi SSE 3.5 mph - N/A   Mostly Cloudy
7:53 PM 84.9 °F 94.1 °F 75.9 °F 74% 29.78 in 10.0 mi SSE 6.9 mph - N/A   Scattered Clouds
8:53 PM 81.0 °F 87.3 °F 75.9 °F 85% 29.78 in 10.0 mi South 3.5 mph - N/A   Clear
9:53 PM 81.0 °F 86.7 °F 75.0 °F 82% 29.81 in 10.0 mi South 3.5 mph - N/A   Partly Cloudy
10:53 PM 79.0 °F - 73.9 °F 84% 29.79 in 10.0 mi South 4.6 mph - N/A   Clear
11:53 PM 77.0 °F - 73.9 °F 90% 29.81 in 10.0 mi South 3.5 mph - N/A   Clear